WZZ307E LZTT-EPGD

Flight info

Callsign WZZ307E
Flight time 1h 4m
Altitude 36000
Route UMARY M66 BABKO Z169 POLON DCT ADOXO N133 GRUDA Z95 OSLOG
Aircraft A321/M-SDE1E2E3FGIJ1J4RWXY/LB1

Departure

Time 2026-05-06 16:53
Airport Poprad-Tatry Airport (LZTT)

Arrival

Time 2026-05-06 17:57
Airport Gdańsk Lech Wałęsa Airport (EPGD)
Time Latitude Longitude Altitude Speed Heading
2026-05-06 16:18 49.06919 20.24781 2298 ft 0 kts 257°
2026-05-06 16:19 49.06919 20.24782 2298 ft 0 kts 257°
2026-05-06 16:24 49.06920 20.24782 2298 ft 0 kts 257°
2026-05-06 16:24 49.06919 20.24782 2298 ft 0 kts 257°
2026-05-06 16:25 49.06920 20.24782 2298 ft 0 kts 257°
2026-05-06 16:30 49.06920 20.24783 2298 ft 0 kts 257°
2026-05-06 16:41 49.06920 20.24784 2325 ft 0 kts 257°
2026-05-06 16:47 49.06921 20.24776 2298 ft 1 kts 278°
2026-05-06 16:47 49.06924 20.24774 2312 ft 0 kts 316°
2026-05-06 16:47 49.06934 20.24768 2312 ft 2 kts 340°
2026-05-06 16:47 49.06959 20.24771 2310 ft 4 kts 15°
2026-05-06 16:48 49.06990 20.24801 2306 ft 6 kts 28°
2026-05-06 16:48 49.07035 20.24815 2308 ft 6 kts
2026-05-06 16:48 49.07058 20.24820 2307 ft 1 kts
2026-05-06 16:48 49.07063 20.24821 2306 ft 1 kts
2026-05-06 16:49 49.07065 20.24822 2305 ft 0 kts
2026-05-06 16:49 49.07066 20.24822 2305 ft 0 kts
2026-05-06 16:49 49.07073 20.24823 2303 ft 3 kts
2026-05-06 16:50 49.07106 20.24829 2311 ft 7 kts
2026-05-06 16:50 49.07177 20.24837 2312 ft 12 kts
2026-05-06 16:50 49.07256 20.24844 2323 ft 12 kts
2026-05-06 16:50 49.07319 20.24919 2313 ft 16 kts 88°
2026-05-06 16:51 49.07313 20.25120 2308 ft 21 kts 93°
2026-05-06 16:51 49.07295 20.25369 2306 ft 22 kts 114°
2026-05-06 16:51 49.07269 20.25471 2296 ft 5 kts 40°
2026-05-06 16:51 49.07294 20.25454 2300 ft 3 kts 290°
2026-05-06 16:52 49.07298 20.25431 2301 ft 1 kts 281°
2026-05-06 16:52 49.07299 20.25424 2301 ft 3 kts 278°
2026-05-06 16:52 49.07309 20.25221 2306 ft 48 kts 274°
2026-05-06 16:52 49.07348 20.24334 2327 ft 118 kts 275°
2026-05-06 16:53 49.07411 20.22803 2395 ft 166 kts 275°
2026-05-06 16:53 49.07524 20.21094 3109 ft 159 kts 273°
2026-05-06 16:53 49.07608 20.19406 3635 ft 163 kts 271°
2026-05-06 16:53 49.07686 20.17591 3868 ft 181 kts 270°
2026-05-06 16:54 49.07772 20.15568 4023 ft 201 kts 270°
2026-05-06 16:54 49.07865 20.13369 4262 ft 214 kts 268°
2026-05-06 16:54 49.07967 20.11082 4825 ft 217 kts 268°
2026-05-06 16:54 49.08072 20.08790 5437 ft 217 kts 269°
2026-05-06 16:55 49.08179 20.06479 6020 ft 220 kts 269°
2026-05-06 16:55 49.08285 20.04140 6603 ft 222 kts 269°
2026-05-06 16:55 49.08392 20.01798 7195 ft 222 kts 269°
2026-05-06 16:55 49.08497 19.99436 7945 ft 224 kts 268°
2026-05-06 16:56 49.08602 19.97075 8764 ft 224 kts 270°
2026-05-06 16:56 49.08707 19.94697 9534 ft 227 kts 270°
2026-05-06 16:56 49.08814 19.92290 10241 ft 228 kts 269°
2026-05-06 16:56 49.08923 19.89888 11035 ft 228 kts 270°
2026-05-06 16:57 49.09034 19.87356 11336 ft 251 kts 271°
2026-05-06 16:57 49.09153 19.84571 11596 ft 274 kts 271°
2026-05-06 16:57 49.09282 19.81543 11820 ft 298 kts 271°
2026-05-06 16:57 49.09422 19.78289 12200 ft 314 kts 270°
2026-05-06 16:58 49.09569 19.74922 12823 ft 321 kts 271°
2026-05-06 16:58 49.09720 19.71504 13532 ft 325 kts 271°
2026-05-06 16:58 49.09867 19.68049 14271 ft 326 kts 271°
2026-05-06 16:58 49.10093 19.64583 14890 ft 333 kts 278°
2026-05-06 16:59 49.10790 19.61178 15518 ft 341 kts 290°
2026-05-06 16:59 49.11998 19.58016 16145 ft 350 kts 302°
2026-05-06 16:59 49.13428 19.54980 16775 ft 354 kts 301°
2026-05-06 16:59 49.14869 19.51906 17423 ft 358 kts 301°
2026-05-06 17:00 49.16320 19.48795 18066 ft 362 kts 301°
2026-05-06 17:00 49.17785 19.45645 18611 ft 365 kts 300°
2026-05-06 17:00 49.19260 19.42465 19182 ft 368 kts 301°
2026-05-06 17:00 49.20892 19.39403 19756 ft 377 kts 312°
2026-05-06 17:01 49.23026 19.37006 20300 ft 388 kts 328°
2026-05-06 17:01 49.25575 19.35528 20878 ft 398 kts 344°
2026-05-06 17:01 49.28360 19.35153 21415 ft 407 kts
2026-05-06 17:01 49.31174 19.35907 21984 ft 414 kts 11°
2026-05-06 17:02 49.33981 19.36935 22557 ft 416 kts 11°
2026-05-06 17:02 49.36811 19.37978 23130 ft 419 kts 11°
2026-05-06 17:02 49.39652 19.39025 23649 ft 422 kts 11°
2026-05-06 17:02 49.42519 19.40081 24108 ft 425 kts 11°
2026-05-06 17:03 49.45408 19.41144 24549 ft 428 kts 11°
2026-05-06 17:03 49.48308 19.42213 25010 ft 430 kts 11°
2026-05-06 17:03 49.51229 19.43288 25451 ft 433 kts 11°
2026-05-06 17:03 49.54163 19.44364 25873 ft 436 kts 11°
2026-05-06 17:04 49.57126 19.45447 26247 ft 439 kts 11°
2026-05-06 17:04 49.60063 19.46505 26678 ft 440 kts
2026-05-06 17:04 49.63090 19.47107 27096 ft 439 kts 360°
2026-05-06 17:04 49.66149 19.47356 27509 ft 441 kts 360°
2026-05-06 17:05 49.69263 19.47608 27931 ft 444 kts 360°
2026-05-06 17:05 49.72315 19.47857 28297 ft 447 kts 360°
2026-05-06 17:05 49.75435 19.48112 28695 ft 450 kts 360°
2026-05-06 17:05 49.78565 19.48367 29077 ft 452 kts 359°
2026-05-06 17:06 49.81718 19.48628 29466 ft 454 kts 359°
2026-05-06 17:06 49.84885 19.48892 29845 ft 457 kts 359°
2026-05-06 17:06 49.88066 19.49153 30184 ft 459 kts 359°
2026-05-06 17:06 49.91263 19.49410 30527 ft 460 kts 359°
2026-05-06 17:07 49.94462 19.49665 30906 ft 461 kts 359°
2026-05-06 17:07 49.97674 19.49923 31263 ft 462 kts 359°
2026-05-06 17:07 50.00889 19.50188 31642 ft 462 kts 358°
2026-05-06 17:07 50.04095 19.50460 32079 ft 462 kts 358°
2026-05-06 17:08 50.07306 19.50732 32487 ft 461 kts 358°
2026-05-06 17:08 50.10506 19.51003 32936 ft 460 kts 357°
2026-05-06 17:08 50.13695 19.51275 33418 ft 458 kts 357°
2026-05-06 17:08 50.16873 19.51545 33887 ft 456 kts 357°
2026-05-06 17:09 50.20036 19.51811 34242 ft 456 kts 357°
2026-05-06 17:09 50.23205 19.52077 34565 ft 456 kts 357°
2026-05-06 17:09 50.26375 19.52341 34881 ft 456 kts 357°
2026-05-06 17:09 50.29537 19.52603 35194 ft 456 kts 357°
2026-05-06 17:10 50.32707 19.52866 35503 ft 456 kts 357°
2026-05-06 17:10 50.35876 19.53127 35754 ft 457 kts 357°
2026-05-06 17:10 50.39041 19.53390 35825 ft 450 kts 357°
2026-05-06 17:11 50.45248 19.53924 35807 ft 445 kts 357°
2026-05-06 17:11 50.51420 19.54441 35808 ft 444 kts 357°
2026-05-06 17:12 50.56539 19.54875 35811 ft 443 kts 357°
2026-05-06 17:12 50.62705 19.55401 35818 ft 443 kts 357°
2026-05-06 17:13 50.68863 19.55928 35814 ft 444 kts 358°
2026-05-06 17:13 50.75026 19.56451 35819 ft 444 kts 357°
2026-05-06 17:14 50.81197 19.56972 35830 ft 444 kts 357°
2026-05-06 17:14 50.87375 19.57502 35837 ft 445 kts 357°
2026-05-06 17:15 50.93560 19.58042 35828 ft 445 kts 358°
2026-05-06 17:15 50.99747 19.58574 35818 ft 445 kts 357°
2026-05-06 17:16 51.05935 19.59104 35818 ft 445 kts 357°
2026-05-06 17:16 51.12121 19.59635 35818 ft 445 kts 358°
2026-05-06 17:17 51.18304 19.60166 35812 ft 445 kts 358°
2026-05-06 17:17 51.24487 19.60707 35809 ft 445 kts 358°
2026-05-06 17:18 51.30676 19.61248 35802 ft 445 kts 358°
2026-05-06 17:18 51.36858 19.61790 35811 ft 445 kts 358°
2026-05-06 17:19 51.43045 19.62335 35806 ft 445 kts 358°
2026-05-06 17:19 51.49227 19.62879 35802 ft 445 kts 358°
2026-05-06 17:20 51.55411 19.63425 35799 ft 445 kts 358°
2026-05-06 17:20 51.61596 19.63976 35805 ft 446 kts 358°
2026-05-06 17:21 51.67804 19.64525 35796 ft 447 kts 358°
2026-05-06 17:21 51.74013 19.65070 35795 ft 447 kts 358°
2026-05-06 17:22 51.80189 19.65066 35795 ft 439 kts 346°
2026-05-06 17:22 51.86037 19.62674 35794 ft 432 kts 337°
2026-05-06 17:23 51.91794 19.59839 35789 ft 432 kts 337°
2026-05-06 17:23 51.97517 19.57033 35788 ft 432 kts 337°
2026-05-06 17:24 52.03273 19.54201 35787 ft 432 kts 337°
2026-05-06 17:24 52.09033 19.51350 35787 ft 432 kts 337°
2026-05-06 17:25 52.14786 19.48501 35800 ft 432 kts 337°
2026-05-06 17:25 52.20533 19.45656 35797 ft 431 kts 337°
2026-05-06 17:26 52.26273 19.42796 35799 ft 431 kts 337°
2026-05-06 17:26 52.32002 19.39931 35461 ft 430 kts 337°
2026-05-06 17:26 52.34868 19.38503 35204 ft 429 kts 337°
2026-05-06 17:27 52.37710 19.37087 34839 ft 426 kts 337°
2026-05-06 17:27 52.40544 19.35672 34399 ft 424 kts 336°
2026-05-06 17:27 52.43363 19.34264 33925 ft 423 kts 336°
2026-05-06 17:27 52.46168 19.32859 33414 ft 421 kts 336°
2026-05-06 17:28 52.48962 19.31454 32964 ft 418 kts 336°
2026-05-06 17:28 52.51729 19.30056 32502 ft 415 kts 336°
2026-05-06 17:28 52.54481 19.28662 32027 ft 413 kts 335°
2026-05-06 17:28 52.57224 19.27272 31583 ft 411 kts 335°
2026-05-06 17:29 52.59951 19.25891 31150 ft 409 kts 335°
2026-05-06 17:29 52.62666 19.24515 30726 ft 407 kts 335°
2026-05-06 17:29 52.65366 19.23142 30292 ft 406 kts 335°
2026-05-06 17:29 52.68057 19.21773 29883 ft 405 kts 335°
2026-05-06 17:30 52.70744 19.20408 29400 ft 403 kts 335°
2026-05-06 17:30 52.73413 19.19054 29005 ft 400 kts 335°
2026-05-06 17:30 52.76068 19.17704 28597 ft 398 kts 335°
2026-05-06 17:30 52.78699 19.16363 28203 ft 394 kts 335°
2026-05-06 17:31 52.81315 19.15027 27810 ft 391 kts 335°
2026-05-06 17:31 52.83903 19.13701 27421 ft 388 kts 335°
2026-05-06 17:31 52.86473 19.12380 27035 ft 385 kts 335°
2026-05-06 17:31 52.89023 19.11067 26657 ft 382 kts 335°
2026-05-06 17:32 52.91550 19.09766 26280 ft 379 kts 336°
2026-05-06 17:32 52.94058 19.08476 25905 ft 376 kts 336°
2026-05-06 17:32 52.96544 19.07194 25549 ft 373 kts 336°
2026-05-06 17:32 52.99017 19.05916 25118 ft 371 kts 336°
2026-05-06 17:33 53.01479 19.04642 24739 ft 369 kts 336°
2026-05-06 17:33 53.03928 19.03374 24338 ft 367 kts 336°
2026-05-06 17:33 53.06361 19.02115 23940 ft 366 kts 336°
2026-05-06 17:33 53.08785 19.00857 23539 ft 364 kts 336°
2026-05-06 17:34 53.11201 18.99599 23081 ft 363 kts 336°
2026-05-06 17:34 53.13602 18.98353 22675 ft 360 kts 336°
2026-05-06 17:34 53.15984 18.97118 22269 ft 357 kts 336°
2026-05-06 17:34 53.18320 18.95909 21829 ft 355 kts 336°
2026-05-06 17:35 53.20669 18.94690 21432 ft 352 kts 336°
2026-05-06 17:35 53.22995 18.93479 21033 ft 349 kts 336°
2026-05-06 17:35 53.25304 18.92274 20657 ft 347 kts 336°
2026-05-06 17:36 53.29878 18.89868 19858 ft 342 kts 336°
2026-05-06 17:36 53.32144 18.88676 19457 ft 341 kts 336°
2026-05-06 17:36 53.34401 18.87492 19076 ft 339 kts 336°
2026-05-06 17:36 53.36646 18.86313 18684 ft 337 kts 336°
2026-05-06 17:37 53.38881 18.85140 18292 ft 336 kts 336°
2026-05-06 17:37 53.41108 18.83967 17871 ft 336 kts 336°
2026-05-06 17:37 53.43336 18.82793 17446 ft 334 kts 336°
2026-05-06 17:37 53.45544 18.81632 17045 ft 332 kts 336°
2026-05-06 17:38 53.47740 18.80476 16653 ft 329 kts 336°
2026-05-06 17:38 53.49916 18.79324 16269 ft 327 kts 336°
2026-05-06 17:38 53.52102 18.78287 15897 ft 328 kts 343°
2026-05-06 17:38 53.54375 18.77866 15523 ft 330 kts 350°
2026-05-06 17:39 53.56664 18.77609 15143 ft 329 kts 350°
2026-05-06 17:39 53.58942 18.77360 14762 ft 327 kts 350°
2026-05-06 17:39 53.61208 18.77115 14397 ft 326 kts 350°
2026-05-06 17:39 53.63465 18.76866 14009 ft 324 kts 350°
2026-05-06 17:40 53.65712 18.76610 13625 ft 323 kts 350°
2026-05-06 17:40 53.67949 18.76352 13219 ft 322 kts 350°
2026-05-06 17:40 53.70175 18.76092 12849 ft 319 kts 350°
2026-05-06 17:40 53.72384 18.75835 12480 ft 317 kts 350°
2026-05-06 17:41 53.74555 18.75470 12104 ft 310 kts 342°
2026-05-06 17:41 53.76571 18.74388 11803 ft 298 kts 328°
2026-05-06 17:41 53.78336 18.72618 11593 ft 292 kts 315°
2026-05-06 17:41 53.79852 18.70385 11401 ft 288 kts 310°
2026-05-06 17:42 53.81341 18.68124 11209 ft 287 kts 310°
2026-05-06 17:42 53.82826 18.65876 11015 ft 286 kts 310°
2026-05-06 17:42 53.84309 18.63625 10826 ft 286 kts 310°
2026-05-06 17:42 53.85784 18.61379 10656 ft 285 kts 310°
2026-05-06 17:43 53.87256 18.59137 10439 ft 284 kts 310°
2026-05-06 17:43 53.88719 18.56899 10259 ft 283 kts 310°
2026-05-06 17:43 53.90177 18.54666 10068 ft 283 kts 310°
2026-05-06 17:43 53.91638 18.52430 9891 ft 282 kts 310°
2026-05-06 17:44 53.93091 18.50203 9697 ft 281 kts 310°
2026-05-06 17:44 53.94541 18.47980 9511 ft 281 kts 310°
2026-05-06 17:44 53.95987 18.45761 9324 ft 280 kts 310°
2026-05-06 17:44 53.97431 18.43539 9139 ft 280 kts 311°
2026-05-06 17:45 53.99039 18.41621 8983 ft 288 kts 326°
2026-05-06 17:45 54.00840 18.40107 8902 ft 289 kts 327°
2026-05-06 17:45 54.02644 18.38600 8729 ft 289 kts 327°
2026-05-06 17:45 54.04443 18.37096 8562 ft 288 kts 327°
2026-05-06 17:46 54.06238 18.35592 8444 ft 287 kts 327°
2026-05-06 17:46 54.08028 18.34092 8312 ft 287 kts 327°
2026-05-06 17:46 54.09819 18.32588 8182 ft 286 kts 327°
2026-05-06 17:46 54.11603 18.31088 8055 ft 286 kts 327°
2026-05-06 17:47 54.13386 18.29587 7930 ft 286 kts 327°
2026-05-06 17:47 54.15167 18.28083 7760 ft 283 kts 329°
2026-05-06 17:47 54.16923 18.26597 7427 ft 281 kts 329°
2026-05-06 17:47 54.18670 18.25117 7084 ft 279 kts 329°
2026-05-06 17:48 54.20400 18.23649 6894 ft 277 kts 329°
2026-05-06 17:48 54.22137 18.22173 6789 ft 277 kts 329°
2026-05-06 17:48 54.23835 18.20731 6649 ft 267 kts 329°
2026-05-06 17:48 54.25470 18.19345 6536 ft 258 kts 329°
2026-05-06 17:49 54.27054 18.17969 6411 ft 262 kts 327°
2026-05-06 17:49 54.28677 18.16476 6285 ft 262 kts 327°
2026-05-06 17:49 54.30254 18.15032 6156 ft 253 kts 327°
2026-05-06 17:49 54.31816 18.13731 5937 ft 248 kts 333°
2026-05-06 17:50 54.33396 18.12660 5804 ft 247 kts 335°
2026-05-06 17:50 54.35004 18.11627 5677 ft 247 kts 335°
2026-05-06 17:50 54.36611 18.10609 5545 ft 246 kts 336°
2026-05-06 17:50 54.38264 18.09719 5410 ft 249 kts 348°
2026-05-06 17:51 54.39980 18.09740 5282 ft 245 kts
2026-05-06 17:51 54.41553 18.10681 5152 ft 237 kts 28°
2026-05-06 17:51 54.42829 18.12339 5026 ft 225 kts 48°
2026-05-06 17:51 54.43719 18.14455 4595 ft 218 kts 65°
2026-05-06 17:52 54.44190 18.16898 3990 ft 214 kts 82°
2026-05-06 17:52 54.44220 18.19374 3620 ft 200 kts 96°
2026-05-06 17:52 54.43894 18.21590 3375 ft 184 kts 109°
2026-05-06 17:52 54.43402 18.23556 3202 ft 174 kts 110°
2026-05-06 17:53 54.42955 18.25365 3027 ft 155 kts 110°
2026-05-06 17:53 54.42557 18.26985 2854 ft 141 kts 108°
2026-05-06 17:53 54.42186 18.28505 2713 ft 136 kts 107°
2026-05-06 17:53 54.41830 18.29966 2589 ft 128 kts 106°
2026-05-06 17:54 54.41493 18.31349 2469 ft 124 kts 105°
2026-05-06 17:54 54.41163 18.32702 2259 ft 121 kts 104°
2026-05-06 17:54 54.40837 18.34027 2090 ft 120 kts 104°
2026-05-06 17:54 54.40517 18.35339 1886 ft 119 kts 103°
2026-05-06 17:55 54.40198 18.36644 1695 ft 118 kts 103°
2026-05-06 17:55 54.39879 18.37944 1500 ft 118 kts 102°
2026-05-06 17:55 54.39561 18.39240 1319 ft 119 kts 103°
2026-05-06 17:55 54.39239 18.40559 1124 ft 120 kts 104°
2026-05-06 17:56 54.38913 18.41894 917 ft 120 kts 103°
2026-05-06 17:56 54.38593 18.43221 697 ft 121 kts 105°
2026-05-06 17:56 54.38269 18.44549 548 ft 121 kts 107°
2026-05-06 17:56 54.37944 18.45860 463 ft 113 kts 107°
2026-05-06 17:57 54.37704 18.46846 454 ft 64 kts 112°
2026-05-06 17:57 54.37614 18.47228 459 ft 20 kts 105°
2026-05-06 17:57 54.37598 18.47401 464 ft 12 kts 92°
2026-05-06 17:57 54.37599 18.47538 465 ft 11 kts 88°
2026-05-06 17:58 54.37604 18.47659 466 ft 9 kts 79°
2026-05-06 17:58 54.37622 18.47716 467 ft 8 kts 55°
2026-05-06 17:58 54.37660 18.47710 466 ft 6 kts 315°
2026-05-06 17:58 54.37684 18.47631 465 ft 9 kts 295°
2026-05-06 17:59 54.37715 18.47512 463 ft 12 kts 292°
2026-05-06 17:59 54.37752 18.47362 458 ft 15 kts 293°
2026-05-06 17:59 54.37789 18.47214 460 ft 12 kts 293°
2026-05-06 17:59 54.37821 18.47088 460 ft 11 kts 293°
2026-05-06 18:00 54.37856 18.46982 460 ft 9 kts 320°
2026-05-06 18:00 54.37906 18.46927 460 ft 8 kts 309°
2026-05-06 18:00 54.37927 18.46844 458 ft 7 kts 292°
2026-05-06 18:00 54.37944 18.46773 460 ft 6 kts 292°
2026-05-06 18:01 54.37959 18.46709 460 ft 6 kts 292°
2026-05-06 18:01 54.37975 18.46642 460 ft 6 kts 292°
2026-05-06 18:01 54.38004 18.46604 460 ft 5 kts 355°
2026-05-06 18:01 54.38034 18.46620 460 ft 5 kts 22°
2026-05-06 18:02 54.38061 18.46643 460 ft 4 kts 30°
2026-05-06 18:02 54.38073 18.46655 460 ft 0 kts 28°
2026-05-06 18:02 54.38074 18.46655 458 ft 0 kts 28°
2026-05-06 18:03 54.38077 18.46658 458 ft 1 kts 27°
2026-05-06 18:03 54.38083 18.46663 460 ft 0 kts 26°
2026-05-06 18:03 54.38084 18.46664 460 ft 0 kts 26°
2026-05-06 18:03 54.38085 18.46665 460 ft 0 kts 25°
2026-05-06 18:04 54.38091 18.46669 460 ft 1 kts 25°
2026-05-06 18:04 54.38094 18.46672 460 ft 0 kts 24°
2026-05-06 18:04 54.38095 18.46672 460 ft 0 kts 24°